DAL786 KDCA-KSEA

Flight info

Callsign DAL786
Flight time N/A
Altitude 34000
Route HORTO4 BUFFR Q178 DJB J34 RWF MLS LWT MLP GLASR3
Aircraft A21N/M-SDE2E3FGHIRWXY/LB1

Departure

Time N/A
Airport Ronald Reagan Washington National Airport (KDCA)

Arrival

Time 2026-05-06 03:10
Airport Seattle–Tacoma International Airport (KSEA)
Time Latitude Longitude Altitude Speed Heading
2026-05-06 02:23 47.44679 -115.41632 33961 ft 439 kts 284°
2026-05-06 02:23 47.45062 -115.50643 33943 ft 440 kts 284°
2026-05-06 02:24 47.45451 -115.59647 33935 ft 439 kts 284°
2026-05-06 02:24 47.45897 -115.68632 33946 ft 437 kts 286°
2026-05-06 02:25 47.46452 -115.77577 33937 ft 437 kts 286°
2026-05-06 02:25 47.47043 -115.86524 33900 ft 437 kts 285°
2026-05-06 02:26 47.47588 -115.95485 33929 ft 438 kts 285°
2026-05-06 02:26 47.48122 -116.04450 33948 ft 438 kts 285°
2026-05-06 02:27 47.48661 -116.13396 33936 ft 436 kts 285°
2026-05-06 02:27 47.49181 -116.22282 33958 ft 437 kts 285°
2026-05-06 02:28 47.49698 -116.31254 33973 ft 438 kts 285°
2026-05-06 02:28 47.50207 -116.40235 33956 ft 438 kts 284°
2026-05-06 02:29 47.50698 -116.49223 33944 ft 438 kts 284°
2026-05-06 02:29 47.51206 -116.58215 33967 ft 439 kts 284°
2026-05-06 02:30 47.51707 -116.67210 33980 ft 439 kts 284°
2026-05-06 02:30 47.52198 -116.76223 33978 ft 439 kts 284°
2026-05-06 02:31 47.52656 -116.85236 33944 ft 440 kts 283°
2026-05-06 02:31 47.53127 -116.94265 33971 ft 440 kts 283°
2026-05-06 02:32 47.53601 -117.03302 33979 ft 440 kts 283°
2026-05-06 02:32 47.54065 -117.12333 33964 ft 440 kts 283°
2026-05-06 02:33 47.54498 -117.21375 33941 ft 440 kts 283°
2026-05-06 02:33 47.54651 -117.24366 33934 ft 440 kts 283°
2026-05-06 02:34 47.55381 -117.39419 33921 ft 442 kts 282°
2026-05-06 02:34 47.55820 -117.48512 33938 ft 442 kts 282°
2026-05-06 02:35 47.56234 -117.57609 33941 ft 443 kts 282°
2026-05-06 02:35 47.56845 -117.66631 33940 ft 438 kts 286°
2026-05-06 02:36 47.57710 -117.75566 33940 ft 438 kts 286°
2026-05-06 02:36 47.58555 -117.84507 33904 ft 438 kts 285°
2026-05-06 02:37 47.59402 -117.93467 33929 ft 439 kts 285°
2026-05-06 02:37 47.60239 -118.02369 33923 ft 439 kts 285°
2026-05-06 02:38 47.61080 -118.11326 33919 ft 439 kts 285°
2026-05-06 02:38 47.61925 -118.20277 33907 ft 439 kts 285°
2026-05-06 02:39 47.62755 -118.29238 33904 ft 439 kts 285°
2026-05-06 02:39 47.63567 -118.38219 33881 ft 439 kts 284°
2026-05-06 02:40 47.64242 -118.45679 33892 ft 439 kts 284°
2026-05-06 02:40 47.65047 -118.54661 33898 ft 439 kts 284°
2026-05-06 02:41 47.65840 -118.63654 33880 ft 439 kts 284°
2026-05-06 02:41 47.66627 -118.72634 33886 ft 439 kts 284°
2026-05-06 02:42 47.67407 -118.81609 33886 ft 439 kts 283°
2026-05-06 02:42 47.68181 -118.90595 33860 ft 439 kts 283°
2026-05-06 02:43 47.68948 -118.99598 33874 ft 440 kts 283°
2026-05-06 02:43 47.69708 -119.08605 33872 ft 440 kts 283°
2026-05-06 02:44 47.70447 -119.17557 33869 ft 439 kts 283°
2026-05-06 02:44 47.71194 -119.26574 33875 ft 439 kts 283°
2026-05-06 02:45 47.71934 -119.35579 33860 ft 439 kts 282°
2026-05-06 02:45 47.72671 -119.44592 33835 ft 440 kts 282°
2026-05-06 02:46 47.73401 -119.53618 33845 ft 440 kts 282°
2026-05-06 02:46 47.74118 -119.62647 33850 ft 440 kts 282°
2026-05-06 02:47 47.74827 -119.71623 33844 ft 440 kts 282°
2026-05-06 02:47 47.75531 -119.80662 33841 ft 439 kts 282°
2026-05-06 02:48 47.76225 -119.89678 33841 ft 439 kts 282°
2026-05-06 02:48 47.76914 -119.98695 33826 ft 436 kts 281°
2026-05-06 02:49 47.77582 -120.07564 33825 ft 432 kts 281°
2026-05-06 02:49 47.77915 -120.12016 33536 ft 433 kts 281°
2026-05-06 02:49 47.78248 -120.16471 32990 ft 435 kts 281°
2026-05-06 02:49 47.78581 -120.20934 32388 ft 434 kts 281°
2026-05-06 02:50 47.78913 -120.25406 31767 ft 435 kts 281°
2026-05-06 02:50 47.79242 -120.29897 31164 ft 437 kts 281°
2026-05-06 02:50 47.79569 -120.34397 30557 ft 439 kts 281°
2026-05-06 02:50 47.79898 -120.38936 29986 ft 441 kts 281°
2026-05-06 02:51 47.80222 -120.43452 29319 ft 438 kts 281°
2026-05-06 02:51 47.80539 -120.47870 28667 ft 433 kts 280°
2026-05-06 02:51 47.80858 -120.52358 27976 ft 429 kts 281°
2026-05-06 02:51 47.81167 -120.56700 27332 ft 425 kts 281°
2026-05-06 02:52 47.81474 -120.61057 26710 ft 421 kts 281°
2026-05-06 02:52 47.81775 -120.65360 26091 ft 416 kts 281°
2026-05-06 02:52 47.82074 -120.69629 25474 ft 413 kts 281°
2026-05-06 02:52 47.82369 -120.73865 24882 ft 409 kts 281°
2026-05-06 02:53 47.82657 -120.78062 24348 ft 406 kts 281°
2026-05-06 02:53 47.82940 -120.82224 23836 ft 403 kts 281°
2026-05-06 02:53 47.83219 -120.86369 23293 ft 400 kts 281°
2026-05-06 02:53 47.83495 -120.90464 22710 ft 396 kts 281°
2026-05-06 02:54 47.83769 -120.94525 22134 ft 392 kts 281°
2026-05-06 02:54 47.84038 -120.98496 21574 ft 388 kts 281°
2026-05-06 02:54 47.84308 -121.02475 21013 ft 385 kts 281°
2026-05-06 02:54 47.84572 -121.06437 20472 ft 383 kts 281°
2026-05-06 02:55 47.84831 -121.10352 19937 ft 379 kts 281°
2026-05-06 02:55 47.85089 -121.14257 19409 ft 377 kts 281°
2026-05-06 02:55 47.85343 -121.18123 18882 ft 373 kts 280°
2026-05-06 02:55 47.85592 -121.21957 18370 ft 372 kts 280°
2026-05-06 02:56 47.85838 -121.25775 17827 ft 368 kts 279°
2026-05-06 02:56 47.86082 -121.29568 17270 ft 366 kts 279°
2026-05-06 02:56 47.86322 -121.33284 16726 ft 364 kts 279°
2026-05-06 02:56 47.86561 -121.37019 16202 ft 361 kts 279°
2026-05-06 02:57 47.86798 -121.40740 15701 ft 360 kts 279°
2026-05-06 02:57 47.87031 -121.44437 15195 ft 357 kts 279°
2026-05-06 02:57 47.87263 -121.48107 14699 ft 356 kts 278°
2026-05-06 02:57 47.87495 -121.51771 14233 ft 354 kts 278°
2026-05-06 02:58 47.87719 -121.55421 13795 ft 352 kts 278°
2026-05-06 02:58 47.87941 -121.59051 13273 ft 350 kts 278°
2026-05-06 02:58 47.88160 -121.62629 12732 ft 343 kts 277°
2026-05-06 02:58 47.88366 -121.66110 12215 ft 330 kts 275°
2026-05-06 02:59 47.88267 -121.69431 12009 ft 310 kts 266°
2026-05-06 02:59 47.88016 -121.72553 11956 ft 302 kts 265°
2026-05-06 02:59 47.87743 -121.75652 11750 ft 300 kts 265°
2026-05-06 02:59 47.87473 -121.78726 11443 ft 298 kts 265°
2026-05-06 03:00 47.87215 -121.81738 11125 ft 296 kts 265°
2026-05-06 03:00 47.86962 -121.84770 10761 ft 294 kts 265°
2026-05-06 03:00 47.86714 -121.87793 10401 ft 293 kts 265°
2026-05-06 03:00 47.86468 -121.90794 10012 ft 291 kts 265°
2026-05-06 03:01 47.86225 -121.93789 9535 ft 291 kts 265°
2026-05-06 03:01 47.85987 -121.96786 9016 ft 293 kts 265°
2026-05-06 03:01 47.85747 -121.99806 8397 ft 294 kts 265°
2026-05-06 03:01 47.85512 -122.02813 7759 ft 290 kts 265°
2026-05-06 03:02 47.85276 -122.05744 7283 ft 280 kts 265°
2026-05-06 03:02 47.85044 -122.08598 6825 ft 276 kts 265°
2026-05-06 03:02 47.84687 -122.11393 6313 ft 276 kts 250°
2026-05-06 03:02 47.83737 -122.13877 5810 ft 277 kts 237°
2026-05-06 03:03 47.82602 -122.16190 5391 ft 276 kts 235°
2026-05-06 03:03 47.81452 -122.18464 5005 ft 274 kts 235°
2026-05-06 03:03 47.80292 -122.20700 4616 ft 272 kts 230°
2026-05-06 03:03 47.78970 -122.22706 4240 ft 270 kts 225°
2026-05-06 03:04 47.77622 -122.24633 3861 ft 268 kts 225°
2026-05-06 03:04 47.76275 -122.26524 3552 ft 265 kts 220°
2026-05-06 03:04 47.74814 -122.28124 3477 ft 264 kts 215°
2026-05-06 03:04 47.73298 -122.29679 3471 ft 264 kts 215°
2026-05-06 03:05 47.71704 -122.31007 3475 ft 265 kts 201°
2026-05-06 03:05 47.69902 -122.31622 3487 ft 266 kts 187°
2026-05-06 03:05 47.68049 -122.31686 3491 ft 269 kts 175°
2026-05-06 03:05 47.66176 -122.31617 3494 ft 269 kts 182°
2026-05-06 03:06 47.64333 -122.31625 3485 ft 257 kts 182°
2026-05-06 03:06 47.62605 -122.31638 3465 ft 240 kts 181°
2026-05-06 03:06 47.60974 -122.31652 3285 ft 230 kts 181°
2026-05-06 03:06 47.59394 -122.31666 3005 ft 224 kts 181°
2026-05-06 03:07 47.57852 -122.31680 2715 ft 218 kts 181°
2026-05-06 03:07 47.56379 -122.31693 2489 ft 206 kts 181°
2026-05-06 03:07 47.54987 -122.31705 2199 ft 193 kts 181°
2026-05-06 03:07 47.53697 -122.31716 1935 ft 178 kts 181°
2026-05-06 03:08 47.52488 -122.31727 1689 ft 170 kts 181°
2026-05-06 03:08 47.51355 -122.31736 1450 ft 152 kts 181°
2026-05-06 03:08 47.50375 -122.31744 1235 ft 135 kts 181°
2026-05-06 03:08 47.49444 -122.31752 1070 ft 132 kts 181°
2026-05-06 03:09 47.48525 -122.31762 879 ft 132 kts 181°
2026-05-06 03:09 47.47615 -122.31772 685 ft 131 kts 181°
2026-05-06 03:09 47.46703 -122.31788 516 ft 131 kts 181°
2026-05-06 03:09 47.45811 -122.31795 402 ft 120 kts 181°
2026-05-06 03:10 47.45150 -122.31800 396 ft 69 kts 181°
2026-05-06 03:10 47.44825 -122.31802 398 ft 37 kts 178°
2026-05-06 03:10 47.44577 -122.31732 397 ft 33 kts 160°
2026-05-06 03:10 47.44413 -122.31594 397 ft 22 kts 152°
2026-05-06 03:11 47.44301 -122.31492 397 ft 16 kts 143°
2026-05-06 03:11 47.44237 -122.31352 399 ft 18 kts 110°
2026-05-06 03:11 47.44195 -122.31170 397 ft 20 kts 121°
2026-05-06 03:11 47.44086 -122.31037 399 ft 22 kts 151°
2026-05-06 03:12 47.43952 -122.30920 397 ft 23 kts 148°
2026-05-06 03:12 47.43903 -122.30729 399 ft 12 kts 93°
2026-05-06 03:12 47.43959 -122.30634 398 ft 14 kts 20°
2026-05-06 03:12 47.43995 -122.30511 399 ft 15 kts 95°
2026-05-06 03:13 47.43994 -122.30362 397 ft 13 kts 84°
2026-05-06 03:13 47.44032 -122.30242 399 ft 10 kts 57°
2026-05-06 03:13 47.44050 -122.30144 398 ft 7 kts 95°
2026-05-06 03:13 47.44049 -122.30112 397 ft 2 kts 77°
2026-05-06 03:14 47.44065 -122.30082 398 ft 5 kts 51°
2026-05-06 03:14 47.44083 -122.30053 395 ft 0 kts 47°
2026-05-06 03:14 47.44085 -122.30051 396 ft 0 kts 47°